FW4301 Weather Reports


Display with metric or nautical units.
time (UTC)temp
F
wind
direction
speed
MPH
gust
MPH
rain 1hr
in
rain 24hr
in
rain mn
in
humidity
%
barometer
mb
20260902161550 94 0 0.0 0.0 0.00 0.00 0.00 38 1016.1
20260902161029 93 0 0.0 0.0 0.00 0.00 0.00 39 1016.2
20260902160532 92 0 0.0 0.0 0.00 0.00 0.00 42 1016.2
20260902160055 92 0 0.0 0.0 0.00 0.00 0.00 43 1016.3
20260902155529 91 0 0.0 0.0 0.00 0.00 0.00 44 1016.2
20260902155030 91 0 0.0 0.0 0.00 0.00 0.00 44 1016.2
20260902154605 90 0 0.0 0.0 0.00 0.00 0.00 48 1016.2
20260902154028 89 0 0.0 0.0 0.00 0.00 0.00 47 1016.2
20260902153529 89 0 0.0 0.0 0.00 0.00 0.00 48 1016.2
20260902153058 88 0 0.0 0.0 0.00 0.00 0.00 48 1016.2
20260902152529 88 0 0.0 0.0 0.00 0.00 0.00 47 1016.1
20260902152029 87 0 0.0 0.0 0.00 0.00 0.00 50 1016.2
20260902151555 87 0 0.0 0.0 0.00 0.00 0.00 52 1016.3
20260902151030 86 0 0.0 0.0 0.00 0.00 0.00 51 1016.2
20260902150531 86 0 0.0 0.0 0.00 0.00 0.00 53 1016.2
20260902150050 85 0 0.0 0.0 0.00 0.00 0.00 53 1016.2
20260902145530 85 0 0.0 0.0 0.00 0.00 0.00 53 1016.3
20260902145029 85 0 0.0 0.0 0.00 0.00 0.00 53 1016.3
20260902144550 84 0 0.0 0.0 0.00 0.00 0.00 52 1016.3
20260902144029 84 0 0.0 0.0 0.00 0.00 0.00 55 1016.2
20260902143529 84 0 0.0 0.0 0.00 0.00 0.00 56 1016.2
20260902143058 83 0 0.0 0.0 0.00 0.00 0.00 56 1016.3
20260902142529 83 0 0.0 0.0 0.00 0.00 0.00 57 1016.4
20260902142030 82 0 0.0 0.0 0.00 0.00 0.00 57 1016.3
20260902141554 82 0 0.0 0.0 0.00 0.00 0.00 57 1016.3
20260902141029 81 0 0.0 0.0 0.00 0.00 0.00 58 1016.3
20260902140530 81 0 0.0 0.0 0.00 0.00 0.00 58 1016.2
20260902140052 80 0 0.0 0.0 0.00 0.00 0.00 59 1016.2
20260902135530 80 0 0.0 0.0 0.00 0.00 0.00 59 1016.2
20260902135030 79 0 0.0 0.0 0.00 0.00 0.00 60 1016.2
20260902134555 78 0 0.0 0.0 0.00 0.00 0.00 61 1016.1
20260902134030 78 0 0.0 0.0 0.00 0.00 0.00 62 1016.1
20260902133530 77 0 0.0 0.0 0.00 0.00 0.00 63 1016.2
20260902133052 77 0 0.0 0.0 0.00 0.00 0.00 63 1016.1
20260902132531 76 0 0.0 0.0 0.00 0.00 0.00 64 1016.2
20260902132030 76 0 0.0 0.0 0.00 0.00 0.00 64 1016.2
20260902131551 76 0 0.0 0.0 0.00 0.00 0.00 65 1016.1
20260902131030 75 0 0.0 0.0 0.00 0.00 0.00 65 1016.2
20260902130531 75 0 0.0 0.0 0.00 0.00 0.00 65 1016.2
20260902130059 75 0 0.0 0.0 0.00 0.00 0.00 65 1016.0
20260902125530 74 0 0.0 0.0 0.00 0.00 0.00 65 1016.0
20260902125032 74 0 0.0 0.0 0.00 0.00 0.00 65 1015.9
20260902124552 74 0 0.0 0.0 0.00 0.00 0.00 65 1015.8
20260902124030 74 0 0.0 0.0 0.00 0.00 0.00 65 1015.8
20260902123529 74 0 0.0 0.0 0.00 0.00 0.00 65 1015.7
20260902123054 74 0 0.0 0.0 0.00 0.00 0.00 65 1015.6
20260902122533 74 0 0.0 0.0 0.00 0.00 0.00 64 1015.6
20260902122029 74 0 0.0 0.0 0.00 0.00 0.00 64 1015.6
20260902121559 74 0 0.0 0.0 0.00 0.00 0.00 64 1015.5
20260902121028 74 0 0.0 0.0 0.00 0.00 0.00 64 1015.5
20260902120527 74 0 0.0 0.0 0.00 0.00 0.00 64 1015.5
20260902120055 74 0 0.0 0.0 0.00 0.00 0.00 64 1015.6
20260902115528 74 0 0.0 0.0 0.00 0.00 0.00 64 1015.6
20260902115029 75 0 0.0 0.0 0.00 0.00 0.00 64 1015.5
20260902114615 75 0 0.0 0.0 0.00 0.00 0.00 64 1015.5
20260902114029 75 0 0.0 0.0 0.00 0.00 0.00 64 1015.5
20260902113528 75 0 0.0 0.0 0.00 0.00 0.00 64 1015.5
20260902113050 75 0 0.0 0.0 0.00 0.00 0.00 64 1015.5
20260902112529 75 0 0.0 0.0 0.00 0.00 0.00 64 1015.5
20260902112030 75 0 0.0 0.0 0.00 0.00 0.00 63 1015.5
20260902111601 75 0 0.0 0.0 0.00 0.00 0.00 63 1015.5
20260902111028 75 0 0.0 0.0 0.00 0.00 0.00 63 1015.4
20260902110528 75 0 0.0 0.0 0.00 0.00 0.00 63 1015.4
20260902110052 75 0 0.0 0.0 0.00 0.00 0.00 63 1015.4
20260902105528 76 0 0.0 0.0 0.00 0.00 0.00 63 1015.4
20260902105029 76 0 0.0 0.0 0.00 0.00 0.00 63 1015.4
20260902104549 76 0 0.0 0.0 0.00 0.00 0.00 63 1015.5
20260902104028 76 0 0.0 0.0 0.00 0.00 0.00 63 1015.6
20260902103530 76 0 0.0 0.0 0.00 0.00 0.00 62 1015.4
20260902103108 76 0 0.0 0.0 0.00 0.00 0.00 62 1015.4
20260902102530 76 0 0.0 0.0 0.00 0.00 0.00 62 1015.4
20260902102029 76 0 0.0 0.0 0.00 0.00 0.00 62 1015.4
20260902101551 76 0 0.0 0.0 0.00 0.00 0.00 61 1015.4
20260902101028 77 0 0.0 0.0 0.00 0.00 0.00 61 1015.4
20260902100530 77 0 0.0 0.0 0.00 0.00 0.00 61 1015.4
20260902100118 77 0 0.0 0.0 0.00 0.00 0.00 60 1015.5
20260902095528 77 0 0.0 0.0 0.00 0.00 0.00 60 1015.5
20260902095028 77 0 0.0 0.0 0.00 0.00 0.00 60 1015.6
20260902094604 78 0 0.0 0.0 0.00 0.00 0.00 60 1015.6
20260902094028 78 0 0.0 0.0 0.00 0.00 0.00 59 1015.5
20260902093528 78 0 0.0 0.0 0.00 0.00 0.00 59 1015.4
20260902093110 78 0 0.0 0.0 0.00 0.00 0.00 59 1015.5
20260902092533 78 0 0.0 0.0 0.00 0.00 0.00 59 1015.4
20260902092032 79 0 0.0 0.0 0.00 0.00 0.00 59 1015.3
20260902091549 79 0 0.0 0.0 0.00 0.00 0.00 59 1015.3
20260902091027 79 0 0.0 0.0 0.00 0.00 0.00 59 1015.3
20260902090533 79 0 0.0 0.0 0.00 0.00 0.00 58 1015.2
20260902090050 79 0 0.0 0.0 0.00 0.00 0.00 58 1015.2
20260902085528 79 0 0.0 0.0 0.00 0.00 0.00 58 1015.2
20260902085031 79 0 0.0 0.0 0.00 0.00 0.00 58 1015.3
20260902084551 79 0 0.0 0.0 0.00 0.00 0.00 58 1015.3
20260902084034 79 0 0.0 0.0 0.00 0.00 0.00 57 1015.3
20260902083534 80 0 0.0 0.0 0.00 0.00 0.00 57 1015.3
20260902083057 80 0 0.0 0.0 0.00 0.00 0.00 57 1015.4
20260902082534 80 0 0.0 0.0 0.00 0.00 0.00 57 1015.4
20260902082032 80 0 0.0 0.0 0.00 0.00 0.00 57 1015.3
20260902081551 80 0 0.0 0.0 0.00 0.00 0.00 57 1015.4
20260902081029 80 0 0.0 0.0 0.00 0.00 0.00 57 1015.6
20260902080530 80 0 0.0 0.0 0.00 0.00 0.00 56 1015.6
20260902080053 80 0 0.0 0.0 0.00 0.00 0.00 56 1015.6
20260902075531 80 0 0.0 0.0 0.00 0.00 0.00 56 1015.5
20260902075031 81 0 0.0 0.0 0.00 0.00 0.00 56 1015.6
20260902074550 81 0 0.0 0.0 0.00 0.00 0.00 56 1015.5
20260902074033 81 0 0.0 0.0 0.00 0.00 0.00 56 1015.4
20260902073528 81 0 0.0 0.0 0.00 0.00 0.00 56 1015.4
20260902073108 81 0 0.0 0.0 0.00 0.00 0.00 56 1015.5
20260902072530 81 0 0.0 0.0 0.00 0.00 0.00 55 1015.6
20260902072029 82 0 0.0 0.0 0.00 0.00 0.00 55 1015.6
20260902071548 82 0 0.0 0.0 0.00 0.00 0.00 55 1015.5
20260902071028 82 0 0.0 0.0 0.00 0.00 0.00 55 1015.6
20260902070529 82 0 0.0 0.0 0.00 0.00 0.00 55 1015.7
20260902070052 82 0 0.0 0.0 0.00 0.00 0.00 54 1015.7
20260902065528 82 0 0.0 0.0 0.00 0.00 0.00 54 1015.6
20260902065031 82 0 0.0 0.0 0.00 0.00 0.00 54 1015.7
20260902064545 82 0 0.0 0.0 0.00 0.00 0.00 54 1015.7
20260902064032 83 0 0.0 0.0 0.00 0.00 0.00 54 1015.6
20260902063535 83 0 0.0 0.0 0.00 0.00 0.00 54 1015.6
20260902063052 83 0 0.0 0.0 0.00 0.00 0.00 54 1015.6
20260902062532 83 0 0.0 0.0 0.00 0.00 0.00 54 1015.5
20260902062031 83 0 0.0 0.0 0.00 0.00 0.00 54 1015.5
20260902061604 83 0 0.0 0.0 0.00 0.00 0.00 54 1015.5
20260902061031 83 0 0.0 0.0 0.00 0.00 0.00 54 1015.4
20260902060529 83 0 0.0 0.0 0.00 0.00 0.00 54 1015.4
20260902060101 83 0 0.0 0.0 0.00 0.00 0.00 54 1015.4
20260902055530 83 0 0.0 0.0 0.00 0.00 0.00 54 1015.4
20260902055029 83 0 0.0 0.0 0.00 0.00 0.00 54 1015.2
20260902054554 83 0 0.0 0.0 0.00 0.00 0.00 54 1015.2
20260902054027 83 0 0.0 0.0 0.00 0.00 0.00 54 1015.2
20260902053529 83 0 0.0 0.0 0.00 0.00 0.00 53 1015.2
20260902053051 83 0 0.0 0.0 0.00 0.00 0.00 53 1015.1
20260902052529 84 0 0.0 0.0 0.00 0.00 0.00 53 1015.2
20260902052028 84 0 0.0 0.0 0.00 0.00 0.00 53 1015.2
20260902051549 84 0 0.0 0.0 0.00 0.00 0.00 52 1015.2
20260902051028 84 0 0.0 0.0 0.00 0.00 0.00 52 1015.2
20260902050528 84 0 0.0 0.0 0.00 0.00 0.00 52 1015.2
20260902050057 84 0 0.0 0.0 0.00 0.00 0.00 52 1015.2
20260902045528 84 0 0.0 0.0 0.00 0.00 0.00 52 1015.1
20260902045028 85 0 0.0 0.0 0.00 0.00 0.00 51 1015.1
20260902044557 85 0 0.0 0.0 0.00 0.00 0.00 51 1015.0
20260902044029 85 0 0.0 0.0 0.00 0.00 0.00 51 1015.1
20260902043532 85 0 0.0 0.0 0.00 0.00 0.00 51 1015.1
20260902043054 85 0 0.0 0.0 0.00 0.00 0.00 50 1015.1
20260902042530 85 0 0.0 0.0 0.00 0.00 0.00 50 1015.1
20260902042030 85 0 0.0 0.0 0.00 0.00 0.00 50 1015.1
20260902041603 85 0 0.0 0.0 0.00 0.00 0.00 49 1015.2
20260902041030 86 0 0.0 0.0 0.00 0.00 0.00 49 1015.1
20260902040530 86 0 0.0 0.0 0.00 0.00 0.00 49 1015.1
20260902035529 86 0 0.0 0.0 0.00 0.00 0.00 48 1015.0
20260902035029 85 0 0.0 0.0 0.00 0.00 0.00 48 1014.9
20260902034551 85 0 0.0 0.0 0.00 0.00 0.00 48 1014.9
20260902034029 85 0 0.0 0.0 0.00 0.00 0.00 48 1014.9
20260902033528 85 0 0.0 0.0 0.00 0.00 0.00 47 1014.8
20260902033052 85 0 0.0 0.0 0.00 0.00 0.00 47 1014.7
20260902032532 86 0 0.0 0.0 0.00 0.00 0.00 47 1014.5
20260902032029 86 0 0.0 0.0 0.00 0.00 0.00 46 1014.4
20260902031601 86 0 0.0 0.0 0.00 0.00 0.00 46 1014.4
20260902031028 86 0 0.0 0.0 0.00 0.00 0.00 46 1014.4
20260902030532 86 0 0.0 0.0 0.00 0.00 0.00 45 1014.4
20260902030058 87 0 0.0 0.0 0.00 0.00 0.00 45 1014.3
20260902025528 87 0 0.0 0.0 0.00 0.00 0.00 44 1014.3
20260902025028 87 0 0.0 0.0 0.00 0.00 0.00 44 1014.2
20260902024603 87 0 0.0 0.0 0.00 0.00 0.00 44 1014.2
20260902024029 88 0 0.0 0.0 0.00 0.00 0.00 44 1014.1
20260902023529 88 0 0.0 0.0 0.00 0.00 0.00 43 1014.1
20260902023100 88 0 0.0 0.0 0.00 0.00 0.00 43 1014.0
20260902022530 88 0 0.0 0.0 0.00 0.00 0.00 42 1013.8
20260902022029 89 0 0.0 0.0 0.00 0.00 0.00 42 1013.8
20260902021556 89 0 0.0 0.0 0.00 0.00 0.00 41 1013.6
20260902021028 89 0 0.0 0.0 0.00 0.00 0.00 41 1013.6
20260902020529 90 0 0.0 0.0 0.00 0.00 0.00 40 1013.5
20260902020047 90 0 0.0 0.0 0.00 0.00 0.00 40 1013.5
20260902015528 90 0 0.0 0.0 0.00 0.00 0.00 39 1013.5
20260902015029 91 0 0.0 0.0 0.00 0.00 0.00 39 1013.4
20260902014553 91 0 0.0 0.0 0.00 0.00 0.00 38 1013.5
20260902014028 92 0 0.0 0.0 0.00 0.00 0.00 38 1013.4
20260902013531 92 0 0.0 0.0 0.00 0.00 0.00 38 1013.3
20260902013051 92 0 0.0 0.0 0.00 0.00 0.00 38 1013.2
20260902012528 93 0 0.0 0.0 0.00 0.00 0.00 38 1013.2
20260902012029 93 0 0.0 0.0 0.00 0.00 0.00 37 1013.2
20260902011555 93 0 0.0 0.0 0.00 0.00 0.00 36 1013.2
20260902011030 94 0 0.0 0.0 0.00 0.00 0.00 35 1013.2
20260902010529 94 0 0.0 0.0 0.00 0.00 0.00 35 1013.2
20260902010051 95 0 0.0 0.0 0.00 0.00 0.00 34 1013.1
20260902005528 95 0 0.0 0.0 0.00 0.00 0.00 34 1013.2
20260902005029 95 0 0.0 0.0 0.00 0.00 0.00 34 1013.2
20260902004602 96 0 0.0 0.0 0.00 0.00 0.00 33 1013.1
20260902004028 96 0 0.0 0.0 0.00 0.00 0.00 33 1013.1
20260902003528 96 0 0.0 0.0 0.00 0.00 0.00 33 1013.1
20260902003057 97 0 0.0 0.0 0.00 0.00 0.00 32 1013.1
20260902002528 97 0 0.0 0.0 0.00 0.00 0.00 32 1013.1
20260902002028 97 0 0.0 0.0 0.00 0.00 0.00 32 1013.1
20260902001605 97 0 0.0 0.0 0.00 0.00 0.00 31 1013.2
20260902001028 98 0 0.0 0.0 0.00 0.00 0.00 31 1013.2
20260902000528 98 0 0.0 0.0 0.00 0.00 0.00 31 1013.2
20260902000051 98 0 0.0 0.0 0.00 0.00 0.00 30 1013.2
20260901235529 99 0 0.0 0.0 0.00 0.00 0.00 30 1013.2
20260901235030 99 0 0.0 0.0 0.00 0.00 0.00 29 1013.3
20260901234606 100 0 0.0 0.0 0.00 0.00 0.00 28 1013.2
20260901234028 101 0 0.0 0.0 0.00 0.00 0.00 28 1013.2
20260901233529 101 0 0.0 0.0 0.00 0.00 0.00 27 1013.3
20260901233104 102 0 0.0 0.0 0.00 0.00 0.00 27 1013.3
20260901232529 103 0 0.0 0.0 0.00 0.00 0.00 27 1013.4
20260901232030 103 0 0.0 0.0 0.00 0.00 0.00 27 1013.4
20260901231554 103 0 0.0 0.0 0.00 0.00 0.00 27 1013.2
20260901231029 103 0 0.0 0.0 0.00 0.00 0.00 27 1013.2
20260901230530 103 0 0.0 0.0 0.00 0.00 0.00 28 1013.3
20260901230052 102 0 0.0 0.0 0.00 0.00 0.00 28 1013.4
20260901225529 102 0 0.0 0.0 0.00 0.00 0.00 30 1013.4
20260901225028 101 0 0.0 0.0 0.00 0.00 0.00 30 1013.3
20260901224553 100 0 0.0 0.0 0.00 0.00 0.00 30 1013.4
20260901224028 100 0 0.0 0.0 0.00 0.00 0.00 30 1013.5
20260901223528 100 0 0.0 0.0 0.00 0.00 0.00 29 1013.4
20260901223053 100 0 0.0 0.0 0.00 0.00 0.00 28 1013.4
20260901222530 100 0 0.0 0.0 0.00 0.00 0.00 28 1013.5
20260901222030 100 0 0.0 0.0 0.00 0.00 0.00 26 1013.5
20260901221551 100 0 0.0 0.0 0.00 0.00 0.00 27 1013.5
20260901221028 100 0 0.0 0.0 0.00 0.00 0.00 28 1013.5
20260901220528 100 0 0.0 0.0 0.00 0.00 0.00 29 1013.5
20260901220048 100 0 0.0 0.0 0.00 0.00 0.00 27 1013.5
20260901215529 100 0 0.0 0.0 0.00 0.00 0.00 29 1013.5
20260901215029 100 0 0.0 0.0 0.00 0.00 0.00 29 1013.6
20260901214605 100 0 0.0 0.0 0.00 0.00 0.00 28 1013.8
20260901214029 100 0 0.0 0.0 0.00 0.00 0.00 29 1013.8
20260901213527 101 0 0.0 0.0 0.00 0.00 0.00 29 1013.7
20260901213129 101 0 0.0 0.0 0.00 0.00 0.00 29 1013.8
20260901212528 101 0 0.0 0.0 0.00 0.00 0.00 28 1013.8
20260901212029 102 0 0.0 0.0 0.00 0.00 0.00 27 1013.9
20260901211552 102 0 0.0 0.0 0.00 0.00 0.00 28 1013.9
20260901211030 103 0 0.0 0.0 0.00 0.00 0.00 28 1014.0
20260901210530 103 0 0.0 0.0 0.00 0.00 0.00 27 1014.1
20260901210059 104 0 0.0 0.0 0.00 0.00 0.00 25 1014.2
20260901205529 105 0 0.0 0.0 0.00 0.00 0.00 25 1014.1
20260901205029 106 0 0.0 0.0 0.00 0.00 0.00 24 1014.2
20260901204554 107 0 0.0 0.0 0.00 0.00 0.00 24 1014.2
20260901204028 107 0 0.0 0.0 0.00 0.00 0.00 24 1014.3
20260901203529 108 0 0.0 0.0 0.00 0.00 0.00 23 1014.3
20260901203115 108 0 0.0 0.0 0.00 0.00 0.00 22 1014.4
20260901202529 108 0 0.0 0.0 0.00 0.00 0.00 23 1014.5
20260901202029 108 0 0.0 0.0 0.00 0.00 0.00 24 1014.5
20260901201556 108 0 0.0 0.0 0.00 0.00 0.00 24 1014.6
20260901201031 108 0 0.0 1.0 0.00 0.00 0.00 25 1014.5
20260901200531 107 0 0.0 1.0 0.00 0.00 0.00 26 1014.5
20260901200053 108 0 0.0 1.0 0.00 0.00 0.00 21 1014.6
20260901195532 108 0 0.0 0.0 0.00 0.00 0.00 24 1014.7
20260901195032 109 0 0.0 0.0 0.00 0.00 0.00 22 1014.7
20260901194602 109 0 0.0 0.0 0.00 0.00 0.00 25 1014.7
20260901194032 108 0 0.0 0.0 0.00 0.00 0.00 26 1014.8
20260901193529 108 0 0.0 0.0 0.00 0.00 0.00 24 1014.7
20260901193103 107 0 0.0 0.0 0.00 0.00 0.00 24 1014.9
20260901192529 106 0 0.0 1.0 0.00 0.00 0.00 26 1014.9
20260901192030 107 0 0.0 1.0 0.00 0.00 0.00 21 1015.1
20260901191610 108 0 0.0 0.0 0.00 0.00 0.00 21 1015.1
20260901191029 108 0 0.0 0.0 0.00 0.00 0.00 26 1015.2
20260901190532 107 0 0.0 0.0 0.00 0.00 0.00 27 1015.2
20260901190053 106 0 0.0 0.0 0.00 0.00 0.00 26 1015.2
20260901185531 106 0 0.0 0.0 0.00 0.00 0.00 27 1015.3
20260901185031 104 0 0.0 0.0 0.00 0.00 0.00 28 1015.4
20260901184601 103 0 0.0 0.0 0.00 0.00 0.00 28 1015.4
20260901184029 102 0 0.0 1.0 0.00 0.00 0.00 29 1015.6
20260901183533 101 0 0.0 1.0 0.00 0.00 0.00 30 1015.7
20260901183100 100 0 0.0 1.0 0.00 0.00 0.00 29 1016.0
20260901182532 100 0 0.0 0.0 0.00 0.00 0.00 31 1016.0
20260901182032 100 0 0.0 0.0 0.00 0.00 0.00 30 1016.2
20260901181552 100 0 0.0 0.0 0.00 0.00 0.00 29 1016.4
20260901181033 100 0 0.0 0.0 0.00 0.00 0.00 33 1016.5
20260901180529 100 0 0.0 0.0 0.00 0.00 0.00 33 1016.5
20260901180052 99 0 0.0 0.0 0.00 0.00 0.00 32 1016.6
20260901175532 99 0 0.0 0.0 0.00 0.00 0.00 33 1016.6
20260901175029 99 0 0.0 0.0 0.00 0.00 0.00 32 1016.6
20260901174602 98 0 0.0 0.0 0.00 0.00 0.00 32 1016.7
20260901174030 99 0 0.0 0.0 0.00 0.00 0.00 32 1016.8
20260901173534 100 0 0.0 0.0 0.00 0.00 0.00 30 1016.9
20260901173055 100 0 0.0 0.0 0.00 0.00 0.00 30 1016.9
20260901172532 101 0 0.0 0.0 0.00 0.00 0.00 31 1017.0
20260901172032 101 0 0.0 0.0 0.00 0.00 0.00 31 1017.0
20260901171554 101 0 0.0 1.0 0.00 0.00 0.00 31 1017.0
20260901171032 101 0 0.0 1.0 0.00 0.00 0.00 29 1017.0
20260901170529 101 0 0.0 0.0 0.00 0.00 0.00 30 1017.1
20260901170052 100 0 0.0 0.0 0.00 0.00 0.00 35 1017.2
20260901165528 99 0 0.0 0.0 0.00 0.00 0.00 35 1017.3
20260901165029 97 0 0.0 0.0 0.00 0.00 0.00 37 1017.2
20260901164558 96 0 0.0 0.0 0.00 0.00 0.00 40 1017.3
20260901164032 95 0 0.0 0.0 0.00 0.00 0.00 37 1017.4
20260901163532 95 0 0.0 0.0 0.00 0.00 0.00 37 1017.3
20260901163100 94 0 0.0 0.0 0.00 0.00 0.00 38 1017.4
20260901162531 94 0 0.0 0.0 0.00 0.00 0.00 39 1017.4
20260901162032 93 0 0.0 0.0 0.00 0.00 0.00 39 1017.5